CEB104 RPLL-RPVP

Flight info

Callsign CEB104
Flight time 1h 4m
Altitude 36000
Route BUCAL4V BUCAL M646 NOMYO
Aircraft A20N/M-SDE2E3FGHIRWXY/LB1

Departure

Time 2026-04-15 07:34
Airport Ninoy Aquino International Airport (RPLL)

Arrival

Time 2026-04-15 08:38
Airport Puerto Princesa International Airport / PAF Antonio Bautista Air Base (RPVP)
Time Latitude Longitude Altitude Speed Heading
2026-04-15 07:34 14.26753 120.90894 10629 ft 321 kts 226°
2026-04-15 07:34 14.25157 120.89183 11029 ft 332 kts 226°
2026-04-15 07:34 14.23500 120.87407 11634 ft 336 kts 226°
2026-04-15 07:35 14.21850 120.85640 12203 ft 339 kts 226°
2026-04-15 07:35 14.20182 120.83853 12763 ft 344 kts 226°
2026-04-15 07:35 14.18472 120.82021 13357 ft 347 kts 227°
2026-04-15 07:35 14.16783 120.80212 13923 ft 349 kts 226°
2026-04-15 07:36 14.14981 120.78458 14504 ft 352 kts 217°
2026-04-15 07:36 14.12872 120.77124 14791 ft 353 kts 204°
2026-04-15 07:36 14.10556 120.76199 14862 ft 353 kts 198°
2026-04-15 07:36 14.08261 120.75404 14876 ft 353 kts 198°
2026-04-15 07:37 14.05904 120.74599 14868 ft 352 kts 198°
2026-04-15 07:37 14.03532 120.73776 14864 ft 352 kts 198°
2026-04-15 07:37 14.01181 120.72946 14860 ft 353 kts 198°
2026-04-15 07:37 13.98772 120.72089 14861 ft 353 kts 198°
2026-04-15 07:38 13.96379 120.71234 14837 ft 352 kts 198°
2026-04-15 07:38 13.93943 120.70364 14850 ft 353 kts 198°
2026-04-15 07:38 13.91588 120.69521 14899 ft 356 kts 198°
2026-04-15 07:38 13.89181 120.68659 15339 ft 360 kts 198°
2026-04-15 07:39 13.86770 120.67796 15956 ft 360 kts 198°
2026-04-15 07:39 13.84372 120.66936 16489 ft 361 kts 198°
2026-04-15 07:39 13.81916 120.66058 16974 ft 364 kts 198°
2026-04-15 07:39 13.79489 120.65191 17467 ft 367 kts 198°
2026-04-15 07:40 13.77029 120.64312 18001 ft 370 kts 198°
2026-04-15 07:40 13.74569 120.63434 18470 ft 373 kts 198°
2026-04-15 07:40 13.72025 120.62525 18967 ft 375 kts 198°
2026-04-15 07:40 13.69474 120.61614 19454 ft 378 kts 198°
2026-04-15 07:41 13.66879 120.60687 19942 ft 381 kts 198°
2026-04-15 07:41 13.64289 120.59763 20424 ft 384 kts 198°
2026-04-15 07:41 13.61684 120.58832 20918 ft 386 kts 198°
2026-04-15 07:41 13.59115 120.57797 21388 ft 389 kts 202°
2026-04-15 07:42 13.56591 120.56613 21845 ft 392 kts 204°
2026-04-15 07:42 13.54017 120.55370 22307 ft 395 kts 204°
2026-04-15 07:42 13.51456 120.54131 22764 ft 398 kts 204°
2026-04-15 07:42 13.48859 120.52876 23232 ft 400 kts 204°
2026-04-15 07:43 13.46282 120.51633 23700 ft 401 kts 204°
2026-04-15 07:43 13.43658 120.50370 24162 ft 403 kts 204°
2026-04-15 07:43 13.41057 120.49117 24607 ft 405 kts 204°
2026-04-15 07:43 13.38423 120.47851 25049 ft 406 kts 204°
2026-04-15 07:44 13.35790 120.46584 25491 ft 407 kts 204°
2026-04-15 07:44 13.33176 120.45328 25909 ft 409 kts 204°
2026-04-15 07:44 13.30477 120.44030 26318 ft 410 kts 204°
2026-04-15 07:44 13.27836 120.42761 26715 ft 412 kts 205°
2026-04-15 07:45 13.25152 120.41472 27110 ft 413 kts 204°
2026-04-15 07:45 13.22433 120.40166 27488 ft 415 kts 205°
2026-04-15 07:45 13.19765 120.38886 27849 ft 416 kts 205°
2026-04-15 07:45 13.17013 120.37564 28217 ft 417 kts 205°
2026-04-15 07:46 13.14329 120.36276 28569 ft 418 kts 205°
2026-04-15 07:46 13.11615 120.34975 28926 ft 419 kts 204°
2026-04-15 07:46 13.08889 120.33668 29243 ft 420 kts 205°
2026-04-15 07:46 13.06114 120.32337 29516 ft 422 kts 205°
2026-04-15 07:47 13.03351 120.31012 29691 ft 427 kts 205°
2026-04-15 07:47 13.00566 120.29677 29813 ft 432 kts 205°
2026-04-15 07:47 12.97718 120.28312 30012 ft 436 kts 205°
2026-04-15 07:47 12.94880 120.26952 30257 ft 437 kts 205°
2026-04-15 07:48 12.92061 120.25601 30508 ft 439 kts 205°
2026-04-15 07:48 12.89240 120.24251 30739 ft 440 kts 205°
2026-04-15 07:48 12.86372 120.22878 31041 ft 440 kts 205°
2026-04-15 07:48 12.86196 120.22794 31062 ft 440 kts 205°
2026-04-15 07:49 12.84211 120.21845 31299 ft 439 kts 205°
2026-04-15 07:49 12.81370 120.20485 31624 ft 437 kts 205°
2026-04-15 07:50 12.79723 120.19698 31800 ft 437 kts 205°
2026-04-15 07:50 12.77479 120.18624 32034 ft 436 kts 205°
2026-04-15 07:50 12.74643 120.17268 32315 ft 436 kts 205°
2026-04-15 07:50 12.71857 120.15935 32582 ft 436 kts 205°
2026-04-15 07:51 12.69039 120.14587 32881 ft 436 kts 205°
2026-04-15 07:51 12.66248 120.13254 33181 ft 436 kts 205°
2026-04-15 07:51 12.63410 120.11898 33513 ft 435 kts 205°
2026-04-15 07:51 12.60618 120.10564 33839 ft 434 kts 205°
2026-04-15 07:52 12.57786 120.09212 34157 ft 433 kts 205°
2026-04-15 07:52 12.55022 120.07893 34418 ft 433 kts 205°
2026-04-15 07:52 12.52483 120.06681 34616 ft 434 kts 205°
2026-04-15 07:53 12.49698 120.05352 34838 ft 435 kts 205°
2026-04-15 07:53 12.46894 120.04015 35052 ft 436 kts 205°
2026-04-15 07:53 12.44098 120.02682 35253 ft 437 kts 205°
2026-04-15 07:53 12.41273 120.01334 35430 ft 438 kts 205°
2026-04-15 07:54 12.38420 119.99973 35588 ft 439 kts 205°
2026-04-15 07:54 12.35569 119.98615 35756 ft 441 kts 205°
2026-04-15 07:54 12.29868 119.95898 35846 ft 442 kts 205°
2026-04-15 07:55 12.24153 119.93176 35842 ft 442 kts 205°
2026-04-15 07:56 12.15468 119.89043 35850 ft 442 kts 205°
2026-04-15 07:56 12.09693 119.86297 35841 ft 442 kts 205°
2026-04-15 07:57 12.03959 119.83571 35845 ft 442 kts 205°
2026-04-15 07:57 11.98199 119.80834 35840 ft 442 kts 205°
2026-04-15 07:58 11.92539 119.78146 35843 ft 442 kts 205°
2026-04-15 07:58 11.86820 119.75431 35842 ft 442 kts 205°
2026-04-15 07:59 11.81047 119.72691 35841 ft 442 kts 205°
2026-04-15 07:59 11.75328 119.69978 35839 ft 442 kts 205°
2026-04-15 08:00 11.69543 119.67236 35837 ft 442 kts 205°
2026-04-15 08:00 11.63750 119.64543 35831 ft 441 kts 205°
2026-04-15 08:01 11.58013 119.61884 35835 ft 441 kts 205°
2026-04-15 08:01 11.52263 119.59218 35835 ft 441 kts 205°
2026-04-15 08:02 11.46504 119.56547 35840 ft 442 kts 205°
2026-04-15 08:02 11.40724 119.53867 35842 ft 442 kts 205°
2026-04-15 08:03 11.34990 119.51211 35843 ft 441 kts 205°
2026-04-15 08:03 11.29237 119.48545 35848 ft 441 kts 205°
2026-04-15 08:04 11.23499 119.45888 35854 ft 439 kts 205°
2026-04-15 08:04 11.17808 119.43254 35853 ft 439 kts 205°
2026-04-15 08:05 11.12056 119.40594 35849 ft 440 kts 205°
2026-04-15 08:05 11.06311 119.37938 35845 ft 440 kts 205°
2026-04-15 08:06 11.00565 119.35282 35843 ft 441 kts 205°
2026-04-15 08:06 10.94802 119.32619 35842 ft 441 kts 205°
2026-04-15 08:07 10.89091 119.29981 35843 ft 439 kts 205°
2026-04-15 08:07 10.83408 119.27357 35842 ft 439 kts 204°
2026-04-15 08:08 10.77691 119.24719 35840 ft 439 kts 205°
2026-04-15 08:08 10.71964 119.22078 35835 ft 440 kts 205°
2026-04-15 08:09 10.66275 119.19456 35830 ft 441 kts 205°
2026-04-15 08:09 10.60457 119.16773 35829 ft 441 kts 205°
2026-04-15 08:10 10.54744 119.14143 35696 ft 438 kts 205°
2026-04-15 08:10 10.51907 119.12835 34849 ft 444 kts 204°
2026-04-15 08:10 10.49007 119.11498 33682 ft 453 kts 204°
2026-04-15 08:10 10.46066 119.10143 32659 ft 457 kts 204°
2026-04-15 08:11 10.43156 119.08804 31828 ft 460 kts 204°
2026-04-15 08:11 10.40150 119.07423 31027 ft 462 kts 204°
2026-04-15 08:11 10.37181 119.06056 30249 ft 463 kts 204°
2026-04-15 08:11 10.34278 119.04486 29649 ft 459 kts 211°
2026-04-15 08:12 10.31561 119.02604 29138 ft 454 kts 215°
2026-04-15 08:12 10.28976 119.00671 28604 ft 450 kts 216°
2026-04-15 08:12 10.26417 118.98730 28052 ft 447 kts 216°
2026-04-15 08:12 10.23877 118.96808 27481 ft 444 kts 216°
2026-04-15 08:13 10.21373 118.94918 26917 ft 442 kts 216°
2026-04-15 08:13 10.18834 118.93010 26348 ft 439 kts 216°
2026-04-15 08:13 10.16356 118.91151 25788 ft 437 kts 216°
2026-04-15 08:13 10.13730 118.89515 25176 ft 434 kts 200°
2026-04-15 08:14 10.10745 118.88902 24566 ft 428 kts 178°
2026-04-15 08:14 10.07767 118.89487 23976 ft 421 kts 154°
2026-04-15 08:14 10.05167 118.90894 23463 ft 415 kts 149°
2026-04-15 08:14 10.02496 118.92224 22914 ft 415 kts 155°
2026-04-15 08:15 9.99771 118.93257 22565 ft 409 kts 159°
2026-04-15 08:15 9.97000 118.94143 22210 ft 403 kts 161°
2026-04-15 08:15 9.94284 118.94952 21822 ft 398 kts 161°
2026-04-15 08:15 9.91553 118.95754 21480 ft 392 kts 161°
2026-04-15 08:16 9.88891 118.96538 21106 ft 386 kts 161°
2026-04-15 08:16 9.86263 118.97317 20745 ft 381 kts 161°
2026-04-15 08:16 9.83718 118.98161 20377 ft 373 kts 151°
2026-04-15 08:16 9.81662 118.99740 19991 ft 361 kts 125°
2026-04-15 08:17 9.80545 119.02030 19607 ft 349 kts 99°
2026-04-15 08:17 9.80598 119.04470 19248 ft 340 kts 72°
2026-04-15 08:17 9.81746 119.06587 18870 ft 335 kts 51°
2026-04-15 08:17 9.83188 119.08440 18539 ft 329 kts 61°
2026-04-15 08:18 9.83840 119.10696 18131 ft 326 kts 89°
2026-04-15 08:18 9.83310 119.12953 17746 ft 327 kts 117°
2026-04-15 08:18 9.81745 119.14668 17412 ft 331 kts 146°
2026-04-15 08:18 9.79521 119.15415 17047 ft 335 kts 175°
2026-04-15 08:19 9.77179 119.14989 16659 ft 337 kts 205°
2026-04-15 08:19 9.75328 119.13492 16303 ft 336 kts 234°
2026-04-15 08:19 9.74264 119.11337 16004 ft 331 kts 254°
2026-04-15 08:19 9.73933 119.09009 15723 ft 326 kts 273°
2026-04-15 08:20 9.74275 119.06741 15440 ft 319 kts 281°
2026-04-15 08:20 9.74268 119.04464 15081 ft 319 kts 259°
2026-04-15 08:20 9.73715 119.02220 14507 ft 325 kts 254°
2026-04-15 08:20 9.73212 118.99902 13707 ft 338 kts 265°
2026-04-15 08:21 9.73180 118.97420 12790 ft 353 kts 274°
2026-04-15 08:21 9.73363 118.94867 11838 ft 367 kts 275°
2026-04-15 08:21 9.73522 118.92212 10867 ft 375 kts 273°
2026-04-15 08:21 9.73628 118.89572 10194 ft 354 kts 273°
2026-04-15 08:22 9.73724 118.87099 9576 ft 329 kts 273°
2026-04-15 08:22 9.73841 118.84778 8753 ft 319 kts 274°
2026-04-15 08:22 9.73985 118.82596 7965 ft 312 kts 275°
2026-04-15 08:22 9.74171 118.80321 7200 ft 337 kts 276°
2026-04-15 08:23 9.74355 118.77662 6438 ft 398 kts 269°
2026-04-15 08:23 9.73706 118.74818 6814 ft 410 kts 253°
2026-04-15 08:23 9.72834 118.72027 7764 ft 403 kts 252°
2026-04-15 08:23 9.71626 118.69493 8709 ft 393 kts 233°
2026-04-15 08:24 9.69575 118.67760 9843 ft 364 kts 209°
2026-04-15 08:24 9.67170 118.67111 10523 ft 346 kts 182°
2026-04-15 08:24 9.64834 118.67614 11039 ft 325 kts 153°
2026-04-15 08:24 9.63116 118.69031 11508 ft 306 kts 130°
2026-04-15 08:25 9.61864 118.70752 12004 ft 291 kts 120°
2026-04-15 08:25 9.60914 118.72607 12338 ft 292 kts 110°
2026-04-15 08:25 9.60278 118.74573 13123 ft 281 kts 101°
2026-04-15 08:25 9.59961 118.76507 13690 ft 265 kts 93°
2026-04-15 08:26 9.59954 118.78378 13729 ft 260 kts 83°
2026-04-15 08:26 9.60271 118.80201 13753 ft 259 kts 73°
2026-04-15 08:26 9.60921 118.81930 13775 ft 260 kts 63°
2026-04-15 08:26 9.61905 118.83508 13802 ft 260 kts 53°
2026-04-15 08:27 9.63145 118.84950 13827 ft 261 kts 45°
2026-04-15 08:27 9.64582 118.86146 13850 ft 262 kts 36°
2026-04-15 08:27 9.66113 118.87205 13873 ft 262 kts 41°
2026-04-15 08:27 9.67363 118.88598 13819 ft 256 kts 58°
2026-04-15 08:28 9.68221 118.90192 13488 ft 255 kts 71°
2026-04-15 08:28 9.68400 118.92030 13054 ft 259 kts 99°
2026-04-15 08:28 9.67928 118.93829 12742 ft 258 kts 107°
2026-04-15 08:28 9.67333 118.95582 12429 ft 257 kts 107°
2026-04-15 08:29 9.66733 118.97330 12036 ft 261 kts 107°
2026-04-15 08:29 9.66129 118.99132 11580 ft 266 kts 107°
2026-04-15 08:29 9.65538 119.00924 11383 ft 259 kts 107°
2026-04-15 08:29 9.65147 119.02112 11245 ft 255 kts 106°
2026-04-15 08:30 9.64397 119.04435 10819 ft 253 kts 103°
2026-04-15 08:30 9.64070 119.06207 10487 ft 251 kts 92°
2026-04-15 08:30 9.64094 119.08018 10166 ft 249 kts 81°
2026-04-15 08:30 9.64461 119.09775 9837 ft 247 kts 71°
2026-04-15 08:31 9.65138 119.11400 9513 ft 246 kts 61°
2026-04-15 08:31 9.66109 119.12873 9194 ft 245 kts 51°
2026-04-15 08:31 9.67326 119.14130 8883 ft 244 kts 40°
2026-04-15 08:31 9.68757 119.15138 8575 ft 243 kts 30°
2026-04-15 08:32 9.70398 119.15732 8242 ft 244 kts
2026-04-15 08:32 9.72087 119.15412 7883 ft 247 kts 333°
2026-04-15 08:32 9.73398 119.14226 7567 ft 250 kts 302°
2026-04-15 08:32 9.73927 119.12487 7211 ft 255 kts 272°
2026-04-15 08:33 9.73658 119.10645 6713 ft 264 kts 257°
2026-04-15 08:33 9.73156 119.08813 6141 ft 268 kts 258°
2026-04-15 08:33 9.72875 119.06924 5559 ft 267 kts 270°
2026-04-15 08:33 9.72891 119.05011 5091 ft 261 kts 275°
2026-04-15 08:34 9.73001 119.03139 4745 ft 257 kts 276°
2026-04-15 08:34 9.73112 119.01298 4404 ft 255 kts 275°
2026-04-15 08:34 9.73206 118.99486 4074 ft 253 kts 275°
2026-04-15 08:34 9.73286 118.97666 3739 ft 252 kts 275°
2026-04-15 08:35 9.73361 118.95863 3420 ft 252 kts 274°
2026-04-15 08:35 9.73435 118.94038 3079 ft 251 kts 274°
2026-04-15 08:35 9.73509 118.92227 2759 ft 250 kts 274°
2026-04-15 08:35 9.73583 118.90472 2530 ft 239 kts 274°
2026-04-15 08:36 9.73654 118.88776 2111 ft 231 kts 274°
2026-04-15 08:36 9.73725 118.87140 1820 ft 222 kts 273°
2026-04-15 08:36 9.73792 118.85571 1621 ft 209 kts 274°
2026-04-15 08:36 9.73855 118.84105 1352 ft 200 kts 274°
2026-04-15 08:37 9.73916 118.82697 1072 ft 191 kts 273°
2026-04-15 08:37 9.73974 118.81343 828 ft 181 kts 273°
2026-04-15 08:37 9.74029 118.80075 597 ft 170 kts 273°
2026-04-15 08:37 9.74081 118.78887 384 ft 158 kts 273°
2026-04-15 08:38 9.74129 118.77783 189 ft 153 kts 273°
2026-04-15 08:38 9.74179 118.76685 43 ft 149 kts 272°
2026-04-15 08:38 9.74219 118.75761 61 ft 108 kts 271°
2026-04-15 08:38 9.74248 118.75162 71 ft 49 kts 274°
2026-04-15 08:39 9.74256 118.74850 74 ft 37 kts 272°
2026-04-15 08:39 9.74344 118.74706 74 ft 13 kts 358°
2026-04-15 08:39 9.74408 118.74725 74 ft 9 kts 25°
2026-04-15 08:39 9.74427 118.74773 74 ft 4 kts 83°
2026-04-15 08:40 9.74425 118.74809 74 ft 5 kts 94°
2026-04-15 08:40 9.74422 118.74849 74 ft 6 kts 94°
2026-04-15 08:40 9.74419 118.74887 74 ft 5 kts 94°
2026-04-15 08:40 9.74417 118.74927 74 ft 6 kts 92°
2026-04-15 08:41 9.74416 118.74972 74 ft 6 kts 92°
2026-04-15 08:41 9.74414 118.75021 73 ft 3 kts 92°
2026-04-15 08:41 9.74417 118.75038 73 ft 3 kts 70°
2026-04-15 08:41 9.74441 118.75058 73 ft 5 kts 15°
2026-04-15 08:42 9.74470 118.75062 73 ft 3 kts
2026-04-15 08:42 9.74489 118.75063 73 ft 2 kts
2026-04-15 08:42 9.74507 118.75064 73 ft 0 kts
2026-04-15 08:42 9.74508 118.75064 73 ft 0 kts